Clintonville, WI

10:35 AM CST on November 20, 2019 (GMT -0600)
Clintonville Municipal

Weather History for KCLI - October, 2019

Change the Weather History Date:

Monday, October 21, 2019

  Actual Average Record
Temperature  
Mean Temperature 51 °F -  
Max Temperature 59 °F 57 °F 82 °F (1953)
Min Temperature 43 °F 34 °F 18 °F (1960)
Degree Days  
Heating Degree Days 14    
Growing Degree Days 1 (Base 50)    
Moisture  
Dew Point 46 °F    
Average Humidity 81    
Maximum Humidity 92    
Minimum Humidity 60    
Precipitation  
Precipitation 0.43 in - - ()
Sea Level Pressure  
Sea Level Pressure 29.53 in    
Wind  
Wind Speed 9 mph (SE)    
Max Wind Speed 23 mph    
Max Gust Speed 33 mph    
Visibility 9 miles    
Events Rain    
Averages and records for this station are not official NWS values.
T = Trace of Precipitation, MM = Missing Value Source: NWS Daily Summary

Daily Weather History Graph

Daily Weather History Graph

Search for Another Location

Airport or City:

Astronomy

Oct. 21, 2019 Rise Set
Actual Time 7:17 AM CDT 6:00 PM CDT
Civil Twilight 6:47 AM CDT 6:30 PM CDT
Nautical Twilight 6:14 AM CDT 7:04 PM CDT
Astronomical Twilight 5:40 AM CDT 7:37 PM CDT
Moon No Moon Rise 2:44 PM CDT (10/21)
Length of Visible Light 11h 42m
Length of Day
10h 43m
Waning Gibbous, 48% of the Moon is Illuminated
Oct 21
Waning Gibbous
Oct 27
New
Nov 4
First Quarter
Nov 12
Full
Nov 19
Last Quarter

Hourly Weather History & Observations

Time (CDT) Temp. Windchill Dew Point Humidity Pressure Visibility Wind Dir Wind Speed Gust Speed Precip Events Conditions
12:15 AM 45.5 °F 44.2 °F 42.4 °F 89% 29.91 in 4.0 mi ENE 3.5 mph - N/A   Clear
12:35 AM 46.0 °F - 43.3 °F 90% 29.91 in 1.2 mi Calm Calm - N/A   Mist
12:55 AM 46.4 °F - 42.6 °F 87% 29.91 in 7.0 mi Calm Calm - N/A   Clear
1:15 AM 43.7 °F 42.1 °F 40.6 °F 89% 29.90 in 1.5 mi NE 3.5 mph - N/A   Mist
1:35 AM 44.8 °F 43.3 °F 42.6 °F 92% 29.90 in 3.0 mi ENE 3.5 mph - N/A   Clear
1:55 AM 44.1 °F 41.5 °F 41.2 °F 90% 29.88 in 3.0 mi ENE 4.6 mph - N/A   Clear
2:15 AM 44.2 °F 39.7 °F 39.6 °F 84% 29.85 in 7.0 mi East 8.1 mph - N/A   Clear
2:35 AM 46.4 °F 42.9 °F 39.0 °F 75% 29.86 in 7.0 mi East 6.9 mph - N/A   Clear
2:55 AM 46.0 °F 41.9 °F 38.7 °F 75% 29.86 in 10.0 mi East 8.1 mph - N/A   Clear
3:15 AM 45.5 °F 41.8 °F 39.0 °F 78% 29.85 in 10.0 mi East 6.9 mph - N/A   Scattered Clouds
3:35 AM 45.7 °F 42.0 °F 40.6 °F 83% 29.84 in 10.0 mi ENE 6.9 mph - N/A   Mostly Cloudy
3:55 AM 46.4 °F 44.3 °F 41.9 °F 84% 29.84 in 10.0 mi East 4.6 mph - N/A   Overcast
4:15 AM 47.1 °F - 43.0 °F 86% 29.82 in 10.0 mi East 6.9 mph - N/A   Overcast
4:35 AM 47.3 °F - 43.3 °F 86% 29.81 in 10.0 mi ENE 9.2 mph - N/A   Overcast
4:55 AM 47.5 °F - 43.7 °F 87% 29.80 in 10.0 mi East 6.9 mph - N/A   Overcast
5:15 AM 47.7 °F - 44.1 °F 87% 29.78 in 10.0 mi East 8.1 mph - N/A   Overcast
5:35 AM 48.6 °F - 44.8 °F 87% 29.77 in 10.0 mi East 8.1 mph - N/A   Overcast
5:55 AM 49.5 °F - 45.1 °F 85% 29.76 in 10.0 mi East 9.2 mph 16.1 mph N/A   Mostly Cloudy
6:15 AM 49.3 °F - 45.1 °F 86% 29.74 in 10.0 mi East 9.2 mph - N/A   Scattered Clouds
6:35 AM 49.6 °F - 45.5 °F 86% 29.72 in 10.0 mi East 10.4 mph - N/A   Mostly Cloudy
6:55 AM 50.0 °F - 45.7 °F 85% 29.70 in 10.0 mi East 10.4 mph - N/A   Overcast
7:15 AM 50.9 °F - 45.9 °F 83% 29.69 in 10.0 mi East 9.2 mph - N/A   Overcast
7:35 AM 51.1 °F - 46.0 °F 83% 29.67 in 10.0 mi East 15.0 mph 20.7 mph N/A   Mostly Cloudy
7:55 AM 51.3 °F - 46.4 °F 83% 29.66 in 10.0 mi East 12.7 mph 17.3 mph N/A   Overcast
8:15 AM 51.6 °F - 46.4 °F 82% 29.65 in 10.0 mi East 11.5 mph 17.3 mph N/A   Overcast
8:35 AM 52.2 °F - 46.4 °F 81% 29.65 in 10.0 mi ESE 13.8 mph 19.6 mph N/A   Overcast
8:55 AM 52.7 °F - 46.4 °F 79% 29.62 in 10.0 mi ESE 13.8 mph 20.7 mph N/A   Overcast
9:15 AM 53.1 °F - 46.0 °F 77% 29.61 in 10.0 mi ESE 16.1 mph 26.5 mph N/A   Overcast
9:35 AM 53.6 °F - 45.9 °F 75% 29.56 in 10.0 mi ESE 19.6 mph 27.6 mph N/A   Overcast
9:55 AM 54.0 °F - 45.5 °F 73% 29.54 in 10.0 mi ESE 15.0 mph 31.1 mph N/A   Overcast
10:15 AM 54.0 °F - 45.3 °F 73% 29.51 in 10.0 mi East 19.6 mph 28.8 mph N/A   Overcast
10:35 AM 53.2 °F - 45.7 °F 76% 29.51 in 10.0 mi East 15.0 mph 26.5 mph N/A Rain Rain
10:55 AM 52.5 °F - 46.4 °F 80% 29.49 in 10.0 mi ESE 13.8 mph 23.0 mph N/A Rain Light Rain
11:15 AM 52.0 °F - 47.1 °F 83% 29.47 in 10.0 mi East 13.8 mph 21.9 mph N/A Rain Light Rain
11:35 AM 51.4 °F - 47.7 °F 87% 29.44 in 5.0 mi East 13.8 mph 21.9 mph 0.03 in Rain Rain
11:55 AM 51.8 °F - 48.0 °F 87% 29.42 in 10.0 mi East 15.0 mph 23.0 mph 0.03 in   Overcast
12:15 PM 51.8 °F - 48.2 °F 88% 29.39 in 4.0 mi East 19.6 mph 25.3 mph 0.04 in Rain Rain
12:35 PM 52.0 °F - 48.7 °F 89% 29.35 in 3.0 mi East 16.1 mph 32.2 mph 0.13 in Rain Rain
12:55 PM 52.7 °F - 50.0 °F 91% 29.31 in 3.0 mi ESE 23.0 mph 28.8 mph 0.21 in Rain Rain
1:35 PM 54.7 °F - 51.4 °F 89% 29.30 in 3.0 mi SE 21.9 mph 33.4 mph 0.05 in Rain Light Rain
1:55 PM 54.5 °F - 51.8 °F 91% 29.29 in 4.0 mi SE 18.4 mph 26.5 mph 0.06 in Rain Light Rain
2:15 PM 54.9 °F - 52.2 °F 91% 29.28 in 7.0 mi SE 15.0 mph 23.0 mph 0.01 in Rain Light Rain
2:35 PM 55.4 °F - 52.7 °F 91% 29.28 in 5.0 mi SSE 16.1 mph 29.9 mph 0.06 in Rain Light Rain
2:55 PM 55.8 °F - 53.2 °F 91% 29.29 in 4.0 mi SSE 12.7 mph 24.2 mph 0.13 in Rain Rain
3:15 PM 56.3 °F - 53.6 °F 91% 29.28 in 10.0 mi SSE 15.0 mph 24.2 mph N/A   Light Drizzle
3:35 PM 57.4 °F - 54.3 °F 90% 29.28 in 10.0 mi South 11.5 mph 17.3 mph N/A   Overcast
3:55 PM 58.3 °F - 54.9 °F 88% 29.28 in 10.0 mi SSE 13.8 mph - N/A   Overcast
4:15 PM 58.6 °F - 54.7 °F 87% 29.28 in 10.0 mi SSE 12.7 mph 16.1 mph N/A   Overcast
4:55 PM 59.2 °F - 54.9 °F 86% 29.28 in 10.0 mi SSE 11.5 mph - N/A   Mostly Cloudy
5:15 PM 59.0 °F - 54.5 °F 85% 29.28 in 10.0 mi SSE 8.1 mph - N/A   Scattered Clouds
5:35 PM 58.3 °F - 54.1 °F 86% 29.28 in 10.0 mi SSE 6.9 mph - N/A   Scattered Clouds
5:55 PM 57.2 °F - 53.8 °F 88% 29.28 in 10.0 mi SSE 8.1 mph - N/A   Scattered Clouds
6:15 PM 57.4 °F - 54.0 °F 88% 29.29 in 10.0 mi South 5.8 mph - N/A   Mostly Cloudy
6:35 PM 57.6 °F - 52.7 °F 84% 29.30 in 10.0 mi South 10.4 mph - N/A   Mostly Cloudy
6:55 PM 57.2 °F - 43.5 °F 60% 29.32 in 10.0 mi SSW 15.0 mph 20.7 mph N/A   Scattered Clouds
7:15 PM 55.4 °F - 43.2 °F 63% 29.32 in 10.0 mi SSW 10.4 mph - N/A   Scattered Clouds
7:35 PM 55.2 °F - 41.9 °F 61% 29.34 in 10.0 mi SSW 15.0 mph 24.2 mph N/A   Clear
7:55 PM 53.6 °F - 41.0 °F 62% 29.34 in 10.0 mi SSW 12.7 mph 17.3 mph N/A   Clear
8:15 PM 52.7 °F - 39.7 °F 61% 29.35 in 10.0 mi SSW 12.7 mph - N/A   Clear
8:35 PM 52.7 °F - 39.7 °F 61% 29.36 in 10.0 mi SSW 9.2 mph - N/A   Mostly Cloudy
8:55 PM 52.5 °F - 39.7 °F 62% 29.36 in 10.0 mi SSW 11.5 mph - N/A   Overcast
9:15 PM 52.2 °F - 39.7 °F 63% 29.35 in 10.0 mi SSW 10.4 mph - N/A   Overcast
9:35 PM 51.1 °F - 41.2 °F 69% 29.36 in 10.0 mi SSW 13.8 mph - N/A   Light Drizzle
9:55 PM 50.5 °F - 42.3 °F 73% 29.36 in 10.0 mi SSW 12.7 mph 18.4 mph N/A   Overcast
10:15 PM 49.1 °F - 41.5 °F 75% 29.35 in 10.0 mi SSW 16.1 mph 24.2 mph N/A   Mostly Cloudy
10:35 PM 48.4 °F - 40.8 °F 75% 29.35 in 10.0 mi South 15.0 mph - N/A   Clear
10:55 PM 47.8 °F - 40.1 °F 75% 29.35 in 10.0 mi SSW 9.2 mph - N/A   Clear
11:15 PM 47.7 °F - 39.7 °F 74% 29.34 in 10.0 mi South 12.7 mph - N/A   Mostly Cloudy
11:55 PM 48.6 °F - 39.2 °F 70% 29.33 in 10.0 mi South 10.4 mph 16.1 mph N/A   Overcast